Weather History for Klawock, AK

Change the Weather History Date:

Wednesday, March 13, 2013

  Actual Average Record
Temperature  
Mean Temperature 34 °F -  
Max Temperature 41 °F 40 °F 55 °F (2005)
Min Temperature 30 °F 28 °F 18 °F (2006)
Degree Days  
Heating Degree Days 30    
Moisture  
Dew Point 31 °F    
Average Humidity 91    
Maximum Humidity 96    
Minimum Humidity 76    
Precipitation  
Precipitation 0.14 in - - ()
Sea Level Pressure  
Sea Level Pressure 29.77 in    
Wind  
Wind Speed 1 mph (NNW)    
Max Wind Speed 8 mph    
Max Gust Speed -    
Visibility 6 miles    
Events Fog , Rain , Snow    
Averages and records for this station are not official NWS values.
T = Trace of Precipitation, MM = Missing Value Source: NWS Daily Summary

Daily Weather History Graph

Daily Weather History Graph

Search for Another Location

Airport:

Trip Planner

Search our weather history database for the weather conditions in past years. The results will help you decide how hot, cold, wet, or windy it might be!

Date:

Astronomy

Mar. 13, 2013 Rise Set
Actual Time 7:11 AM AKDT 6:52 PM AKDT
Civil Twilight 6:35 AM AKDT 7:29 PM AKDT
Nautical Twilight 5:52 AM AKDT 8:12 PM AKDT
Astronomical Twilight 5:07 AM AKDT 8:57 PM AKDT
Moon 7:27 AM AKDT (3/13) 9:50 PM AKDT (3/13)
Length of Visible Light 12h 54m
Length of Day
11h 41m
Waxing Crescent, 4% of the Moon is Illuminated
Mar 13
Waxing Crescent
Mar 19
First Quarter
Mar 27
Full
Apr 2
Last Quarter
Apr 10
New

Hourly Weather History & Observations

Time (AKDT) Temp. Windchill Dew Point Humidity Pressure Visibility Wind Dir Wind Speed Gust Speed Precip Events Conditions
12:53 AM 30.9 °F 27.5 °F 28.9 °F 92% 29.70 in 10.0 mi Variable 3.5 mph - N/A   Scattered Clouds
1:12 AM 32.0 °F - 30.2 °F 93% 29.71 in 10.0 mi Calm Calm - N/A   Overcast
1:53 AM 32.0 °F 28.7 °F 30.0 °F 92% 29.73 in 9.0 mi SE 3.5 mph - N/A   Overcast
2:09 AM 33.8 °F - 30.2 °F 87% 29.72 in 4.0 mi Calm Calm - 0.00 in Snow Light Snow
2:49 AM 32.0 °F - 30.2 °F 93% 29.73 in 10.0 mi Calm Calm - 0.00 in   Overcast
2:53 AM 32.0 °F 28.7 °F 30.9 °F 96% 29.73 in 10.0 mi SSW 3.5 mph - 0.00 in   Overcast
3:01 AM 32.0 °F - 30.2 °F 93% 29.73 in 1.8 mi Calm Calm - 0.00 in Snow Light Snow
3:08 AM 32.0 °F - 30.2 °F 93% 29.73 in 1.0 mi Calm Calm - 0.00 in Snow Light Snow
3:13 AM 32.0 °F - 30.2 °F 93% 29.73 in 2.0 mi Calm Calm - 0.00 in Snow Light Snow
3:31 AM 32.0 °F 28.7 °F 30.2 °F 93% 29.72 in 2.0 mi North 3.5 mph - 0.00 in Snow Light Snow
3:34 AM 32.0 °F 27.5 °F 30.2 °F 93% 29.72 in 3.0 mi North 4.6 mph - 0.00 in Snow Light Snow
3:43 AM 32.0 °F - 30.2 °F 93% 29.72 in 7.0 mi Calm Calm - 0.00 in   Overcast
3:50 AM 32.0 °F - 30.2 °F 93% 29.72 in 1.8 mi Calm Calm - 0.00 in Snow Light Snow
3:53 AM 32.0 °F 28.7 °F 30.9 °F 96% 29.73 in 1.2 mi NNE 3.5 mph - 0.00 in Snow Light Snow
4:03 AM 32.0 °F - 30.2 °F 93% 29.73 in 1.0 mi Calm Calm - 0.00 in Snow Light Snow
4:07 AM 32.0 °F - 30.2 °F 93% 29.73 in 0.8 mi Calm Calm - 0.00 in Snow Light Snow
4:15 AM 32.0 °F - 30.2 °F 93% 29.73 in 0.5 mi Calm Calm - 0.00 in Fog , Snow Snow
4:30 AM 32.0 °F - 30.2 °F 93% 29.73 in 1.5 mi Calm Calm - 0.00 in Snow Light Snow
4:35 AM 32.0 °F 28.7 °F 30.2 °F 93% 29.73 in 3.0 mi NNE 3.5 mph - 0.00 in Snow Light Snow
4:53 AM 32.0 °F - 30.9 °F 96% 29.73 in 6.0 mi Calm Calm - 0.00 in   Overcast
5:08 AM 32.0 °F - 30.2 °F 93% 29.73 in 1.8 mi Calm Calm - 0.00 in Snow Light Snow
5:17 AM 32.0 °F - 30.2 °F 93% 29.73 in 1.2 mi Calm Calm - 0.00 in Snow Light Snow
5:28 AM 32.0 °F - 30.2 °F 93% 29.73 in 2.0 mi Calm Calm - 0.00 in Snow Light Snow
5:35 AM 32.0 °F - 30.2 °F 93% 29.73 in 2.5 mi Calm Calm - 0.00 in Snow Light Snow
5:44 AM 32.0 °F - 30.2 °F 93% 29.74 in 4.0 mi Calm Calm - 0.00 in Snow Light Snow
5:53 AM 32.0 °F 28.7 °F 30.9 °F 96% 29.74 in 4.0 mi Variable 3.5 mph - 0.00 in Snow Light Snow
6:00 AM 32.0 °F - 30.2 °F 93% 29.74 in 2.5 mi Calm Calm - 0.00 in Snow Light Snow
6:03 AM 32.0 °F - 30.2 °F 93% 29.74 in 1.8 mi Calm Calm - 0.00 in Snow Light Snow
6:11 AM 32.0 °F - 30.2 °F 93% 29.74 in 1.2 mi Calm Calm - 0.00 in Snow Light Snow
6:13 AM 32.0 °F - 30.2 °F 93% 29.74 in 1.5 mi Calm Calm - 0.00 in Snow Light Snow
6:17 AM 32.0 °F - 30.2 °F 93% 29.74 in 3.0 mi Calm Calm - 0.00 in Snow Light Snow
6:24 AM 32.0 °F - 30.2 °F 93% 29.74 in 8.0 mi Calm Calm - 0.00 in   Overcast
6:47 AM 32.0 °F 28.7 °F 30.2 °F 93% 29.74 in 2.5 mi North 3.5 mph - 0.00 in Snow Light Snow
6:53 AM 32.0 °F - 30.9 °F 96% 29.75 in 1.0 mi Calm Calm - 0.00 in Snow Light Snow
7:11 AM 32.0 °F - 30.2 °F 93% 29.75 in 0.8 mi Calm Calm - 0.00 in Snow Light Snow
7:16 AM 32.0 °F 28.7 °F 30.2 °F 93% 29.75 in 1.5 mi NNW 3.5 mph - 0.00 in Snow Light Snow
7:21 AM 32.0 °F - 30.2 °F 93% 29.75 in 3.0 mi Calm Calm - 0.00 in Snow Light Snow
7:27 AM 32.0 °F - 30.2 °F 93% 29.75 in 2.5 mi Calm Calm - 0.00 in Snow Light Snow
7:38 AM 32.0 °F - 30.2 °F 93% 29.75 in 7.0 mi Calm Calm - 0.00 in   Overcast
7:53 AM 32.0 °F - 30.9 °F 96% 29.76 in 9.0 mi Calm Calm - 0.00 in   Overcast
8:14 AM 33.8 °F - 30.2 °F 87% 29.76 in 8.0 mi Calm Calm - N/A   Overcast
8:36 AM 32.0 °F - 30.2 °F 93% 29.77 in 10.0 mi Calm Calm - N/A   Mostly Cloudy
8:43 AM 32.0 °F - 30.2 °F 93% 29.77 in 10.0 mi Calm Calm - N/A   Mostly Cloudy
8:53 AM 32.0 °F - 30.0 °F 92% 29.77 in 9.0 mi Calm Calm - N/A   Mostly Cloudy
9:21 AM 33.8 °F - 30.2 °F 87% 29.77 in 10.0 mi Calm Calm - 0.00 in   Overcast
9:53 AM 35.1 °F - 32.0 °F 89% 29.79 in 3.0 mi Calm Calm - 0.00 in Snow Light Snow
10:11 AM 35.6 °F - 32.0 °F 87% 29.79 in 10.0 mi Calm Calm - 0.01 in   Overcast
10:53 AM 35.1 °F - 32.0 °F 89% 29.81 in 10.0 mi Calm Calm - 0.06 in   Scattered Clouds
11:53 AM 37.0 °F - 33.1 °F 86% 29.84 in 10.0 mi Calm Calm - 0.06 in   Overcast
12:53 PM 37.9 °F - 32.0 °F 79% 29.85 in 10.0 mi Calm Calm - N/A   Overcast
1:53 PM 37.0 °F 34.5 °F 34.0 °F 89% 29.85 in 9.0 mi WSW 3.5 mph - 0.00 in Rain Light Rain
2:13 PM 37.4 °F 33.8 °F 33.8 °F 87% 29.85 in 10.0 mi West 4.6 mph - 0.01 in   Overcast
2:24 PM 37.4 °F 32.1 °F 35.6 °F 93% 29.85 in 10.0 mi WSW 6.9 mph - 0.01 in   Overcast
2:38 PM 37.4 °F 33.8 °F 35.6 °F 93% 29.85 in 10.0 mi SW 4.6 mph - 0.01 in Rain Light Rain
2:53 PM 39.0 °F - 34.0 °F 82% 29.85 in 10.0 mi Calm Calm - 0.01 in Rain Light Rain
3:53 PM 39.9 °F 37.8 °F 35.1 °F 83% 29.84 in 10.0 mi North 3.5 mph - 0.00 in   Overcast
4:00 PM 39.2 °F - 35.6 °F 87% 29.84 in 10.0 mi Calm Calm - N/A   Overcast
4:07 PM 39.2 °F - 35.6 °F 87% 29.84 in 10.0 mi Calm Calm - N/A   Overcast
4:53 PM 39.9 °F 36.7 °F 34.0 °F 79% 29.84 in 9.0 mi WSW 4.6 mph - 0.00 in Rain Light Rain
5:26 PM 37.4 °F 32.8 °F 35.6 °F 93% 29.84 in 10.0 mi SW 5.8 mph - 0.00 in   Mostly Cloudy
5:53 PM 39.0 °F - 32.0 °F 76% 29.84 in 10.0 mi Calm Calm - 0.00 in   Scattered Clouds
7:53 PM 34.0 °F 31.0 °F 30.9 °F 89% 29.86 in 10.0 mi ENE 3.5 mph - N/A   Scattered Clouds
8:53 PM 34.0 °F - 33.1 °F 96% 29.86 in 9.0 mi Calm Calm - 0.00 in Rain Light Rain
9:53 PM 34.0 °F 28.8 °F 32.0 °F 92% 29.83 in 10.0 mi NNE 5.8 mph - 0.01 in   Mostly Cloudy
10:53 PM 34.0 °F 27.2 °F 32.0 °F 92% 29.83 in 10.0 mi NNE 8.1 mph - N/A   Mostly Cloudy
11:53 PM 35.1 °F 30.1 °F 32.0 °F 89% 29.83 in 10.0 mi NNE 5.8 mph - N/A   Overcast